DW8673 Jerrabomberra AU current weather conditions

sailwx.info

Wind from 160

Air temperature 3.3° C
Dewpoint -0.7° C

Last reported at 2015-Jul-07 16:48 UTC.
Time now 2015-Jul-07 17:36 UTC

Location: S 35°23' E 149°12'.
View on Google Maps.

See reports from other nearby stations

  
Tides and Currents Weather Stations Pressure Air Temp Water Temp Dewpoint Dewpoint Depression Visibility Wind Speed Wind Dir Waves Ship Positions
date/time (UTC)wind fromknots sea level pressurealtimeterstation pressurevisibilityair tempwater tempwave heightnotes
2015-Jul-07 16:48 160 3.3
2015-Jul-07 16:43 200 3.3
2015-Jul-07 16:38 158 3.3
2015-Jul-07 16:33 188 3.3
2015-Jul-07 16:18 112 3.3
2015-Jul-07 16:13 135 3.3
2015-Jul-07 16:08 225 3.3
2015-Jul-07 16:03 246 3.3
2015-Jul-07 15:48 068 3.3
2015-Jul-07 15:43 068 3.3
2015-Jul-07 15:38 202 3.3
2015-Jul-07 15:33 135 3.3
2015-Jul-07 15:18 090 2.8
2015-Jul-07 15:13 090 2.8
2015-Jul-07 15:08 158 2.8
2015-Jul-07 15:03 158 2.8
2015-Jul-07 14:48 090 2.8
2015-Jul-07 14:43 090 2.8
2015-Jul-07 14:38 090 2.8
2015-Jul-07 14:33 100 0 gusting 1 2.8
2015-Jul-07 14:18 090 2.2
2015-Jul-07 14:13 090 2.2
2015-Jul-07 14:08 090 2.8
2015-Jul-07 14:03 112 2.8
2015-Jul-07 13:48 298 3.3
2015-Jul-07 13:43 158 3.3
2015-Jul-07 13:38 135 3.3
2015-Jul-07 13:33 068 3.9
2015-Jul-07 13:18 045 4.4
2015-Jul-07 13:13 125 4.4
2015-Jul-07 13:08 270 4.4
2015-Jul-07 13:03 270 4.4
2015-Jul-07 12:48 282 5.0
2015-Jul-07 12:43 068 5.0
2015-Jul-07 12:38 068 4.4
2015-Jul-07 12:33 112 0 gusting 0 4.4
2015-Jul-07 12:18 251 0 gusting 1 4.4
2015-Jul-07 12:13 261 0 gusting 1 4.4
2015-Jul-07 12:08 257 4.4
2015-Jul-07 12:03 4.4
2015-Jul-07 11:48 4.4
2015-Jul-07 11:43 4.4
2015-Jul-07 11:38 248 4.4
2015-Jul-07 11:33 233 4.4
2015-Jul-07 11:18 090 4.4
2015-Jul-07 11:13 090 4.4
2015-Jul-07 11:08 317 4.4
2015-Jul-07 11:03 315 4.4
2015-Jul-07 10:48 112 4.4
2015-Jul-07 10:43 112 4.4
2015-Jul-07 10:38 112 4.4
2015-Jul-07 10:33 112 4.4
2015-Jul-07 10:18 072 4.4
2015-Jul-07 10:13 112 4.4
2015-Jul-07 10:08 112 5.0
2015-Jul-07 10:03 112 5.0
2015-Jul-07 09:48 180 5.0
2015-Jul-07 09:43 180 0 gusting 1 5.0
2015-Jul-07 09:38 204 5.0
2015-Jul-07 09:33 186 5.0
2015-Jul-07 09:18 112 5.6
2015-Jul-07 09:13 112 5.6
2015-Jul-07 09:08 112 6.1
2015-Jul-07 09:03 112 6.1
2015-Jul-07 08:48 112 6.1
2015-Jul-07 08:43 112 6.7
2015-Jul-07 08:38 112 6.7
2015-Jul-07 08:33 112 6.7
2015-Jul-07 08:18 225 7.8
2015-Jul-07 08:13 292 7.8
2015-Jul-07 08:08 292 7.8
2015-Jul-07 08:03 112 8.3
2015-Jul-07 07:48 090 8.9
2015-Jul-07 07:43 090 8.9
2015-Jul-07 07:38 068 8.9
2015-Jul-07 07:33 078 8.9
2015-Jul-07 07:18 090 9.4
2015-Jul-07 07:13 112 9.4
2015-Jul-07 07:08 112 9.4
2015-Jul-07 07:03 9.4
2015-Jul-07 06:48 022 10.0
2015-Jul-07 06:43 338 10.0
2015-Jul-07 06:38 001 0 gusting 0 10.0
2015-Jul-07 06:33 097 10.0
2015-Jul-07 06:18 045 0 gusting 1 10.6
2015-Jul-07 06:13 095 0 gusting 0 10.6
2015-Jul-07 06:08 111 0 gusting 2 10.6
2015-Jul-07 06:03 109 1 gusting 4 10.6
2015-Jul-07 05:48 146 1 gusting 4 10.6
2015-Jul-07 05:43 171 1 gusting 2 10.6
2015-Jul-07 05:38 112 1 gusting 2 11.1
2015-Jul-07 05:33 105 1 gusting 4 11.1
2015-Jul-07 05:18 136 1 gusting 5 11.1
2015-Jul-07 05:13 099 1 gusting 2 11.7
2015-Jul-07 05:08 102 1 gusting 4 11.7
2015-Jul-07 05:03 189 2 gusting 5 11.7
2015-Jul-07 04:48 096 2 gusting 6 11.7
2015-Jul-07 04:43 132 1 gusting 5 11.7
2015-Jul-07 04:38 107 1 gusting 4 11.7
2015-Jul-07 04:33 114 1 gusting 5 11.7
2015-Jul-07 04:18 118 1 gusting 5 11.7
2015-Jul-07 04:13 169 2 gusting 6 12.2
2015-Jul-07 04:08 169 2 gusting 4 12.2
2015-Jul-07 04:03 141 1 gusting 4 12.2
2015-Jul-07 03:48 154 1 gusting 2 12.2
2015-Jul-07 03:43 098 0 gusting 2 12.8
2015-Jul-07 03:38 269 0 gusting 4 12.8
2015-Jul-07 03:33 118 2 gusting 5 12.8
2015-Jul-07 03:18 188 0 gusting 1 13.9
2015-Jul-07 03:13 248 1 gusting 4 14.4
2015-Jul-07 03:08 286 1 gusting 2 14.4
2015-Jul-07 03:03 316 0 gusting 1 13.3
2015-Jul-07 02:48 010 12.8
2015-Jul-07 02:43 270 0 gusting 1 12.8
2015-Jul-07 02:38 329 0 gusting 1 12.8
2015-Jul-07 02:33 299 0 gusting 2 12.8
2015-Jul-07 02:18 239 0 gusting 1 12.8
2015-Jul-07 02:13 123 0 gusting 1 12.8
2015-Jul-07 02:08 093 12.2
2015-Jul-07 02:03 250 1 gusting 4 12.2
2015-Jul-07 01:48 256 1 gusting 4 11.7
2015-Jul-07 01:43 304 1 gusting 2 10.0
2015-Jul-07 01:38 018 0 gusting 2 9.4
2015-Jul-07 01:33 306 0 gusting 1 9.4
2015-Jul-07 01:18 330 0 gusting 1 8.9
2015-Jul-07 01:13 310 0 gusting 1 8.9
2015-Jul-07 01:08 084 8.9
2015-Jul-07 01:03 122 8.9
2015-Jul-07 00:48 285 0 gusting 1 9.4
2015-Jul-07 00:43 295 0 gusting 1 9.4
2015-Jul-07 00:38 271 9.4
2015-Jul-07 00:33 298 8.9
2015-Jul-07 00:18 079 8.9
2015-Jul-07 00:13 068 8.9
2015-Jul-07 00:08 328 8.3
2015-Jul-07 00:03 273 7.8
2015-Jul-06 23:48 038 6.7
2015-Jul-06 23:43 270 6.1
2015-Jul-06 23:38 098 5.6
2015-Jul-06 23:33 251 0 gusting 1 5.6
2015-Jul-06 23:18 203 0 gusting 1 3.9
2015-Jul-06 23:13 320 0 gusting 1 3.3
2015-Jul-06 23:08 254 0 gusting 1 2.8
2015-Jul-06 23:03 250 0 gusting 1 2.2
2015-Jul-06 22:48 106 0.6
2015-Jul-06 22:43 180 0.6
2015-Jul-06 22:38 158 -0.0
2015-Jul-06 22:33 158 -0.0
2015-Jul-06 22:18 158 -0.6
2015-Jul-06 22:13 158 -1.1
2015-Jul-06 22:08 158 -1.1
2015-Jul-06 22:03 158 -1.1
2015-Jul-06 21:48 158 -1.7
2015-Jul-06 21:43 158 -2.2
2015-Jul-06 21:38 158 -2.2
2015-Jul-06 21:33 158 -2.2
2015-Jul-06 21:18 158 -2.2
2015-Jul-06 21:13 158 -2.2
2015-Jul-06 21:08 158 -2.2
2015-Jul-06 21:03 158 -2.2
2015-Jul-06 20:48 158 -2.2
2015-Jul-06 20:43 158 -2.2
2015-Jul-06 20:38 158 -2.2
2015-Jul-06 20:33 158 -2.2
2015-Jul-06 20:18 158 -2.2
2015-Jul-06 20:13 158 -2.2
2015-Jul-06 20:08 158 -2.2
2015-Jul-06 20:03 158 -2.2
2015-Jul-06 19:48 158 -2.2
2015-Jul-06 19:43 158 -2.2
2015-Jul-06 19:38 158 -2.2
2015-Jul-06 19:33 158 -1.7
2015-Jul-06 19:18 158 -1.7
2015-Jul-06 19:13 158 -1.7
2015-Jul-06 19:08 158 -1.7
2015-Jul-06 19:03 158 -1.7
2015-Jul-06 18:48 158 -1.7
2015-Jul-06 18:43 158 -1.7
2015-Jul-06 18:38 158 -1.7
2015-Jul-06 18:33 158 -1.7
2015-Jul-06 18:18 158 -1.1
2015-Jul-06 18:13 158 -1.1
2015-Jul-06 18:08 158 -1.1
2015-Jul-06 18:03 158 -1.1
2015-Jul-06 17:48 158 -1.1
2015-Jul-06 17:43 158 -1.1
2015-Jul-06 17:38 158 -1.1
2015-Jul-06 17:33 158 -1.1
2015-Jul-06 17:18 158 0 gusting 0 -1.1
2015-Jul-06 17:13 158 -1.1
2015-Jul-06 17:08 158 -1.7
2015-Jul-06 17:03 158 -1.1
2015-Jul-06 16:48 158 -1.1
2015-Jul-06 16:43 158 -1.1
2015-Jul-06 16:38 158 -1.1
2015-Jul-06 16:33 158 -1.1
2015-Jul-06 16:18 154 -1.1
2015-Jul-06 16:13 180 -1.1
2015-Jul-06 16:08 090 -1.1
2015-Jul-06 16:03 090 -1.1
2015-Jul-06 15:48 135 -1.1
2015-Jul-06 15:43 135 -1.1
2015-Jul-06 15:38 135 -1.1
2015-Jul-06 15:33 135 -1.1
2015-Jul-06 15:18 135 -0.6
2015-Jul-06 15:13 135 -0.6
2015-Jul-06 15:08 135 -0.6
2015-Jul-06 15:03 145 0 gusting 1 -1.1
2015-Jul-06 14:48 090 -0.6
2015-Jul-06 14:43 090 -0.6
2015-Jul-06 14:38 090 -0.6
2015-Jul-06 14:33 103 -0.6
2015-Jul-06 14:18 112 -0.0
2015-Jul-06 14:13 112 -0.0
2015-Jul-06 14:08 112 -0.0
2015-Jul-06 14:03 -0.0
2015-Jul-06 13:48 112 -0.0
2015-Jul-06 13:43 112 -0.0
2015-Jul-06 13:38 248 -0.0
2015-Jul-06 13:33 045 0.6
2015-Jul-06 13:18 045 0.6
2015-Jul-06 13:13 068 0.6
2015-Jul-06 13:08 158 0.6
2015-Jul-06 13:03 180 0.6
2015-Jul-06 12:48 248 0.6
2015-Jul-06 12:43 248 1.1
2015-Jul-06 12:38 090 1.1
2015-Jul-06 12:33 090 1.1
2015-Jul-06 12:18 264 1.1
2015-Jul-06 12:13 292 1.1
2015-Jul-06 12:08 158 1.7
2015-Jul-06 12:03 202 1.7
2015-Jul-06 11:48 158 1.7
2015-Jul-06 11:43 158 1.7
2015-Jul-06 11:38 158 2.2
2015-Jul-06 11:33 022 2.2
2015-Jul-06 11:18 135 2.8
2015-Jul-06 11:13 180 2.8
2015-Jul-06 11:08 182 2.8
2015-Jul-06 11:03 180 2.8
2015-Jul-06 05:48 303 1 gusting 4 12.2
2015-Jul-06 05:43 333 2 gusting 2 13.3
2015-Jul-06 05:38 311 2 gusting 4 13.9
2015-Jul-06 05:33 313 2 gusting 5 13.9
2015-Jul-06 05:18 349 4 gusting 5 13.9
2015-Jul-06 05:13 299 1 gusting 5 14.4
2015-Jul-06 05:08 289 1 gusting 2 14.4
2015-Jul-06 05:03 211 1 gusting 4 14.4
2015-Jul-06 04:48 293 1 gusting 5 14.4
2015-Jul-06 04:43 272 1 gusting 2 15.0
2015-Jul-06 04:38 320 0 gusting 1 14.4
2015-Jul-06 04:33 277 0 gusting 2 14.4
2015-Jul-06 04:18 134 0 gusting 1 14.4
2015-Jul-06 04:13 249 0 gusting 2 14.4
2015-Jul-06 04:08 244 0 gusting 2 14.4
2015-Jul-06 04:03 317 1 gusting 2 13.9
2015-Jul-06 03:48 261 1 gusting 2 13.9
2015-Jul-06 03:43 242 1 gusting 2 13.9
2015-Jul-06 03:38 240 1 gusting 4 13.3
2015-Jul-06 03:33 188 0 gusting 4 13.3
2015-Jul-06 03:18 134 13.3
2015-Jul-06 03:13 173 0 gusting 2 12.8
2015-Jul-06 03:08 283 0 gusting 1 12.8
2015-Jul-06 03:03 164 1 gusting 2 12.8
2015-Jul-06 02:48 110 1 gusting 1 12.8
2015-Jul-06 02:43 207 1 gusting 1 12.2
2015-Jul-06 02:38 215 0 gusting 2 12.2
2015-Jul-06 02:33 068 0 gusting 2 12.2
2015-Jul-06 02:18 262 1 gusting 2 11.1
2015-Jul-06 02:13 261 1 gusting 4 10.6
2015-Jul-06 02:08 239 0 gusting 1 10.6
2015-Jul-06 02:03 270 1 gusting 4 11.1
2015-Jul-06 01:48 234 2 gusting 5 11.1
2015-Jul-06 01:43 283 1 gusting 2 11.7
2015-Jul-06 01:38 237 0 gusting 1 11.1
2015-Jul-06 01:33 285 1 gusting 2 10.6
2015-Jul-06 01:18 292 0 gusting 1 8.9
2015-Jul-06 01:13 022 0 gusting 1 8.3
2015-Jul-06 01:08 121 0 gusting 2 7.2
2015-Jul-06 01:03 135 0 gusting 1 6.7
2015-Jul-06 00:48 297 0 gusting 1 5.0
2015-Jul-06 00:43 341 0 gusting 2 5.0
2015-Jul-06 00:38 200 1 gusting 1 5.0
2015-Jul-06 00:33 246 0 gusting 2 5.0
2015-Jul-06 00:18 268 1 gusting 2 4.4
2015-Jul-06 00:13 060 4.4
2015-Jul-06 00:08 350 0 gusting 1 4.4
2015-Jul-06 00:03 093 0 gusting 2 4.4
2015-Jul-05 23:48 115 0 gusting 1 4.4
2015-Jul-05 23:43 294 0 gusting 0 4.4
2015-Jul-05 23:38 278 0 gusting 1 3.9
2015-Jul-05 23:33 243 1 gusting 4 3.9
2015-Jul-05 23:18 114 0 gusting 1 3.9
2015-Jul-05 23:13 284 0 gusting 1 3.3
2015-Jul-05 23:08 332 3.3
2015-Jul-05 23:03 348 3.3
2015-Jul-05 22:48 262 2.8
2015-Jul-05 22:43 308 1 gusting 1 2.8
2015-Jul-05 22:38 343 2.8
2015-Jul-05 22:33 358 1 gusting 1 2.8
2015-Jul-05 22:18 341 0 gusting 1 2.8
2015-Jul-05 22:13 309 1 gusting 1 2.8
2015-Jul-05 22:08 338 0 gusting 1 2.2
2015-Jul-05 22:03 006 0 gusting 2 2.2
2015-Jul-05 21:48 346 0 gusting 1 2.2
2015-Jul-05 21:43 353 1 gusting 1 2.2
2015-Jul-05 21:38 290 0 gusting 1 2.2
2015-Jul-05 21:33 311 1 gusting 1 2.2
2015-Jul-05 21:18 329 0 gusting 2 2.2
2015-Jul-05 21:13 339 0 gusting 1 2.2
2015-Jul-05 21:08 320 1 gusting 1 2.2
2015-Jul-05 21:03 313 1 gusting 2 2.2
2015-Jul-05 20:48 311 1 gusting 2 2.2
2015-Jul-05 20:43 316 0 gusting 1 2.8
2015-Jul-05 20:38 2.8
2015-Jul-05 20:33 008 0 gusting 1 2.8
2015-Jul-05 20:18 338 1 gusting 2 2.8
2015-Jul-05 20:13 318 0 gusting 1 2.8
2015-Jul-05 20:08 341 0 gusting 1 2.8
2015-Jul-05 20:03 307 0 gusting 2 2.8
2015-Jul-05 19:48 326 0 gusting 1 2.8
2015-Jul-05 19:43 312 0 gusting 1 2.8
2015-Jul-05 19:38 307 1 gusting 1 2.8
2015-Jul-05 19:33 313 0 gusting 4 2.8
2015-Jul-05 19:18 322 1 gusting 1 3.3
2015-Jul-05 19:13 325 0 gusting 0 3.3
2015-Jul-05 19:08 270 3.3
2015-Jul-05 19:03 270 3.3
2015-Jul-05 18:48 203 3.3
2015-Jul-05 18:43 178 3.3
2015-Jul-05 18:38 248 3.3
2015-Jul-05 18:33 248 3.3
2015-Jul-05 18:18 225 2.8
2015-Jul-05 18:13 158 2.8
2015-Jul-05 18:08 292 2.8
2015-Jul-05 18:03 260 0 gusting 1 2.8
2015-Jul-05 17:48 248 2.8
2015-Jul-05 17:43 223 2.8
2015-Jul-05 17:38 206 2.8
2015-Jul-05 17:33 251 0 gusting 1 2.8
2015-Jul-05 17:18 344 0 gusting 1 2.8
2015-Jul-05 17:13 303 0 gusting 2 2.8
2015-Jul-05 17:08 347 1 gusting 1 2.8
2015-Jul-05 17:03 341 2.8